Regional Weather Roundup
Issued by NWS Northern Indiana

Home | Current Version | Previous Version | Text Only | Print | Product List | Glossary Off
Versions: 1 2 3 4 5 6 7 8 9 10 11 12 13 14 15 16 17 18 19 20 21 22 23 24 25 26 27 28 29 30 31 32 33 34 35 36 37 38 39 40 41 42 43 44 45 46 47 48 49 50

000
ASUS43 KIWX 131200
RWRIWX

KIWX WEATHER ROUNDUP
NATIONAL WEATHER SERVICE NORTHERN INDIANA
700 AM EST WED DEC 13 2017

NOTE: "FAIR" INDICATES FEW OR NO CLOUDS BELOW 12,000 FEET WITH NO
SIGNIFICANT WEATHER AND/OR OBSTRUCTIONS TO VISIBILITY.

* THESE STATIONS ARE NOT UNDER NWS QUALITY CONTROL. THEY ALSO MAY NOT
  REPORT WEATHER SUCH AS PRECIPITATION OR FOG.

INZ001>027-131300-
NORTHERN INDIANA

CITY           SKY/WX    TMP DP  RH WIND       PRES   REMARKS
GARY*          CLOUDY    27   9  46 S9        29.74F WCI  17
SOUTH BEND     CLOUDY    19  10  68 S9        29.78F WCI   8
6HR MIN TEMP:  16; 6HR MAX TEMP:  19;

ELKHART*       CLOUDY    19   9  63 S8        29.78  WCI   9
GOSHEN         CLOUDY    19   9  65 S9        29.79F WCI   8
6HR MIN TEMP:  14; 6HR MAX TEMP:  19;

MONTICELLO*    CLOUDY    23   8  54 S7        29.80F WCI  14
6HR MIN TEMP:  17; 6HR MAX TEMP:  23;

WARSAW*        CLOUDY    19  10  68 S6        29.80F WCI  11
AUBURN*        CLOUDY    19  10  68 S5        29.82F WCI  13
FORT WAYNE     CLOUDY    20  11  68 S12       29.83F WCI   8
6HR MIN TEMP:  12; 6HR MAX TEMP:  20;

PERU/GRISSOM   CLOUDY    22  10  59 S9        29.81F WCI  11
6HR MIN TEMP:  15; 6HR MAX TEMP:  22;


$$
INZ028>050-131300-
CENTRAL INDIANA

CITY           SKY/WX    TMP DP  RH WIND       PRES   REMARKS
LAFAYETTE      CLOUDY    23  10  57 S5        29.81F WCI  17
6HR MIN TEMP:  18; 6HR MAX TEMP:  23;

KOKOMO*        CLOUDY    21  11  65 S12       29.83F WCI   9
6HR MIN TEMP:  16; 6HR MAX TEMP:  21;

MUNCIE*        CLOUDY    21   8  57 S9        29.84F WCI  11
6HR MIN TEMP:  17; 6HR MAX TEMP:  21;

INDIANAPOLIS   CLOUDY    22   8  55 S10       29.85F WCI  11
6HR MIN TEMP:  16; 6HR MAX TEMP:  22;


$$
MIZ043>046-050>051-056>058-064>065-071>073-077>080-131300-
SOUTHWEST LOWER MICHIGAN

CITY           SKY/WX    TMP DP  RH WIND       PRES   REMARKS
BATTLE CREEK   CLOUDY    17  11  77 S9        29.76F WCI   6
6HR MIN TEMP:  14; 6HR MAX TEMP:  17; 6HR PCP: TRACE;

BENTON HARBOR  CLOUDY    21   9  59 S10       29.76S WCI  10
6HR MIN TEMP:  20; 6HR MAX TEMP:  24; 6HR PCP: TRACE;

COLDWATER*     CLOUDY    18  10  73 S6        29.77F WCI   9
6HR MIN TEMP:  13; 6HR MAX TEMP:  18;

HILLSDALE*     CLOUDY    16  10  79 S6        29.77S WCI   7
HOLLAND        CLOUDY    19  14  81 S9        29.73F WCI   8
6HR MIN TEMP:  16; 6HR MAX TEMP:  19; 6HR PCP: TRACE;

GRAND RAPIDS   FLURRIES  18  16  92 S9        29.74F WCI   7
6HR MIN TEMP:  17; 6HR MAX TEMP:  18; 6HR PCP: TRACE;

KALAMAZOO      CLOUDY    18  11  74 S9        29.76F WCI   7
6HR MIN TEMP:  15; 6HR MAX TEMP:  18;

STURGIS*       CLOUDY    17  10  74 S7        29.77F WCI   8
6HR MIN TEMP:  12; 6HR MAX TEMP:  17;

THREE RIVERS*  CLOUDY    19  12  74 S9        29.78F WCI   8
6HR MIN TEMP:  15; 6HR MAX TEMP:  19;


$$
OHZ001>008-015>018-024>025-131300-
NORTHWEST OHIO

CITY           SKY/WX    TMP DP  RH WIND       PRES   REMARKS
DEFIANCE       CLOUDY    16   9  74 S6        29.84F WCI   7
6HR MIN TEMP:  13; 6HR MAX TEMP:  19; 6HR PCP: TRACE;

FINDLAY        CLOUDY    18   9  68 SW8       29.85F WCI   8
6HR MIN TEMP:  17; 6HR MAX TEMP:  19;

TOLEDO EXPRESS CLOUDY    18  14  84 SW7       29.84F WCI   9
6HR MIN TEMP:  18; 6HR MAX TEMP:  19;

TOLEDO METCALF CLOUDY    19  12  74 SW10      29.86F WCI   7
6HR MIN TEMP:  19; 6HR MAX TEMP:  20;

LIMA           CLOUDY    16  10  77 S7        29.85F WCI   6
6HR MIN TEMP:  12; 6HR MAX TEMP:  18;


$$
AND FOR LAKE MICHIGAN COASTAL AND OPEN LAKE BUOY OBSERVATIONS

STATION/POSITION TEMP    WIND        PRES    VSBY  WAVE
                 AIR SEA DIR/SP/G                  HT/PER
                 (F)     (DEG/KT/KT) (MB)    (MI)  (FT/S)
CALUMET HARBOR    24     170/ 11/ 15 1006.5F
MICHIGAN CITY     21     140/ 12/ 15   N/A
BURNS HARBOR      23     170/  9/ 15 1008.1F
SAINT JOSEPH      21     170/  5/ 10 1007.8

$$
&&




USA.gov is the U.S. government's official web portal to all federal, state and local government web resources and services.